Regional Weather Roundup
Issued by NWS Nashville, TN

Home | Current Version | Previous Version | Text Only | Print | Product List | Glossary On
Versions: 1 2 3 4 5 6 7 8 9 10 11 12 13 14 15 16 17 18 19 20 21 22 23 24 25 26 27
000
ASUS44 KOHX 251910
RWROHX
MIDDLE TENNESSEE HOURLY WEATHER ROUNDUP
NATIONAL WEATHER SERVICE NASHVILLE TN
200 PM CDT WED MAY 25 2016

NOTE: "FAIR" INDICATES FEW OR NO CLOUDS BELOW 12,000 FEET WITH
NO SIGNIFICANT WEATHER AND/OR OBSTRUCTIONS TO VISIBILITY.

* THESE REPORTS ARE NOT UNDER NWS QUALITY CONTROL AND MAY NOT
  REPORT WEATHER SUCH AS PRECIPITATION AND FOG.


TNZ005>011-023>034-057-059-062>066-078-080-252000
...NORTHERN MIDDLE TENNESSEE...

CITY           SKY/WX    TMP DP  RH WIND       PRES   REMARKS
CLARKSVILLE    HVY RAIN  72  68  87 NE6       30.10S FOG
CROSSVILLE     CLOUDY    75  59  57 VRB5      30.24F
DICKSON        CLOUDY    84  68  58 S12       30.10F
LEBANON        CLOUDY    81  65  58 S8        30.13F
NASHVILLE      CLOUDY    85  64  49 S13G18    30.13F
SMYRNA         MOSUNNY   85  67  54 S8        30.14F
SPARTA         MOSUNNY   79  64  61 S7        30.18F
$$
TNZ056-058-060-061-075>077-079-093>097-252000
...SOUTHERN MIDDLE TENNESSEE...

CITY           SKY/WX    TMP DP  RH WIND       PRES   REMARKS
COLUMBIA       MOSUNNY   86  70  58 S15       30.11F HX  90
FAYETTEVILLE   MOSUNNY   84  61  45 S8G16     30.17S
LEWISBURG      CLOUDY    86  65  49 S8        30.14F
MCMINNVILLE    SUNNY     84  63  48 S8        30.18F
SHELBYVILLE    MOSUNNY   88  64  45 S10       30.16F
TULLAHOMA      MOSUNNY   84  61  45 S8        30.18F
WINCHESTER     MOSUNNY   84  61  45 S10       30.18F
$$


...KEY TO REMARKS...
VSB - VISIBILITY IN MILES
WCI - WIND CHILL INDEX
HX  - HEAT INDEX





USA.gov is the U.S. government's official web portal to all federal, state and local government web resources and services.